Flag for U.S.A. Weather past 2 weeks in Neenah, Wisconsin, U.S.A.

46 °F

Partly cloudy.

Feels Like: 43 °F
Forecast: 45 / 58 °F
Wind: 7 mph from North

Location: Appleton / Outagamie

Current Time: Oct 4, 2015 at 6:34:45 AM

Latest Report: Oct 4, 2015 at 5:45 AM

Visibility: 10 mi

Pressure: 30.28 "Hg

Humidity: 76%

Dew point: 39 °F

Location of NeenahLocation

Historic Weather in Neenah — Graph


Neenah temperature yesterday

Maximum temperature yesterday: 54 °F (at 11:45 AM)
Minimum temperature yesterday: 46 °F (at 2:35 AM)
Average temperature yesterday: 49 °F

Past Weeks' High & Low Weather Summary

High79 °F (Sep 28, 2:45 PM)100% (Sep 19, 5:45 AM)30.50 "Hg (Sep 19, 5:45 AM)
Low37 °F (Sep 30, 2:35 AM)35% (Sep 20, 4:45 PM)29.43 "Hg (Oct 1, 9:45 AM)
Average57 °F75%30.20 "Hg
* Reported Sep 19 5:15 AM — Oct 4 5:15 AM, Neenah, Weather by CustomWeather, © 2015

Note: Actual official high and low records may vary slightly from our data, if they occured in-between our weather recording intervals... More about our weather records


Neenah weather history for previous 24 hours

Time TempWeatherWind HumidityBarometerVisibility
5:15 AM
Sun, Oct 4
45 °FMostly cloudy.6 mph81%30.28 "Hg10 mi
4:55 AM45 °FMostly cloudy.6 mph81%30.27 "Hg10 mi
4:35 AM45 °FOvercast.6 mph76%30.26 "Hg10 mi
4:15 AM45 °FOvercast.6 mph76%30.26 "Hg10 mi
3:55 AM45 °FOvercast.7 mph76%30.26 "Hg10 mi
3:35 AM46 °FOvercast.7 mph71%30.25 "Hg10 mi
3:15 AM46 °FOvercast.6 mph71%30.25 "Hg10 mi
2:55 AM45 °FOvercast.7 mph76%30.25 "Hg10 mi
2:35 AM45 °FMostly cloudy.6 mph76%30.26 "Hg10 mi
2:15 AM45 °FMostly cloudy.7 mph76%30.27 "Hg10 mi
1:55 AM43 °FOvercast.7 mph76%30.27 "Hg10 mi
1:15 AM43 °FOvercast.6 mph76%30.27 "Hg10 mi
12:55 AM45 °FOvercast.5 mph71%30.28 "Hg10 mi
12:35 AM45 °FOvercast.5 mph71%30.28 "Hg10 mi
12:15 AM46 °FPassing clouds.5 mph66%30.29 "Hg10 mi
11:15 PM
Sat, Oct 3
46 °FPassing clouds.8 mph66%30.29 "Hg10 mi
10:45 PM48 °FPassing clouds.8 mph66%30.29 "Hg10 mi
9:45 PM48 °FPassing clouds.9 mph62%30.29 "Hg10 mi
8:45 PM50 °FPassing clouds.8 mph58%30.29 "Hg10 mi
7:45 PM50 °FPassing clouds.9 mph58%30.29 "Hg10 mi
5:45 PM52 °FPartly sunny.17 mph54%30.30 "Hg10 mi
4:45 PM52 °FPartly sunny.18 mph54%30.29 "Hg10 mi
3:45 PM52 °FPartly sunny.12 mph54%30.30 "Hg10 mi
2:45 PM52 °FPartly sunny.16 mph54%30.31 "Hg10 mi
1:45 PM52 °FPartly sunny.14 mph54%30.31 "Hg10 mi
12:45 PM52 °FPartly sunny.20 mph54%30.32 "Hg10 mi
11:45 AM54 °FPartly sunny.17 mph51%30.34 "Hg10 mi
10:45 AM52 °FPartly sunny.17 mph50%30.35 "Hg10 mi
9:45 AM50 °FBroken clouds.13 mph54%30.35 "Hg10 mi
8:45 AM48 °FBroken clouds.14 mph58%30.35 "Hg10 mi
7:45 AM48 °FPartly cloudy.14 mph58%30.36 "Hg10 mi
Weather by CustomWeather, © 2015

See weather overviewHow to use our weather pages